Location: Newark
(46.9000°N, 28.3500°E)
Time: 19:34:59
(UTC+00:00)

SR - All Passes

Search period start: 18 August 2019 00:00
Search period end: 28 August 2019 00:00
Orbit: 578 x 878 km, 66.7° (Epoch: 16 August)

Date Brightness Start Highest point End Pass type
(mag) Time Alt. Az. Time Alt. Az. Time Alt. Az.
18 Aug - 11:32:08 10° SSW 11:36:26 56° ESE 11:41:07 10° NE daylight
18 Aug - 13:15:05 10° W 13:18:52 25° NW 13:22:56 10° NNE daylight
18 Aug - 18:27:39 10° NNW 18:31:45 22° NE 18:36:02 10° E visible
18 Aug - 20:09:05 10° NNW 20:14:33 87° NE 20:20:22 10° SSE visible
18 Aug - 21:52:31 10° WNW 21:56:03 17° WSW 21:59:43 10° SW visible
19 Aug - 10:43:19 10° S 10:47:03 27° ESE 10:51:02 10° NE daylight
19 Aug - 12:24:37 10° WSW 12:28:53 42° NW 12:33:32 10° NNE daylight
19 Aug - 14:10:28 10° NW 14:12:24 12° NNW 14:14:22 10° N daylight
19 Aug - 17:38:29 10° N 17:41:31 15° NNE 17:44:41 10° ENE visible
19 Aug - 19:19:31 10° NNW 19:24:48 51° NE 19:30:25 10° SE visible
19 Aug - 21:01:55 10° NW 21:06:45 32° WSW 21:11:48 10° S visible
20 Aug - 09:55:41 10° SE 09:57:52 14° ESE 10:00:07 10° ENE daylight
20 Aug - 11:34:40 10° SW 11:39:07 78° WNW 11:43:59 10° NNE daylight
20 Aug - 13:18:58 10° WNW 13:22:04 17° NNW 13:25:22 10° N daylight
20 Aug - 16:49:40 10° N 16:51:08 11° NNE 16:52:39 10° NE daylight
20 Aug - 18:30:06 10° NNW 18:34:54 32° NE 18:39:59 10° ESE visible
20 Aug - 20:11:55 10° NW 20:17:17 57° WSW 20:22:58 10° SSE visible
21 Aug - 10:45:15 10° SSW 10:49:33 53° ESE 10:54:14 10° NE daylight
21 Aug - 12:28:03 10° W 12:31:56 26° NW 12:36:06 10° NNE daylight
21 Aug - 17:40:47 10° NNW 17:44:49 21° NE 17:49:04 10° E visible
21 Aug - 19:22:11 10° NNW 19:27:41 83° NE 19:33:30 10° SE visible
21 Aug - 21:05:29 10° WNW 21:09:13 18° WSW 21:13:04 10° SSW visible
22 Aug - 09:56:31 10° SSE 10:00:12 26° ESE 10:04:07 10° NE daylight
22 Aug - 11:37:39 10° WSW 11:41:58 44° NW 11:46:42 10° NNE daylight
22 Aug - 13:23:20 10° NW 13:25:26 13° NNW 13:27:37 10° N daylight
22 Aug - 16:51:37 10° N 16:54:35 15° NNE 16:57:40 10° ENE daylight
22 Aug - 18:32:38 10° NNW 18:37:55 49° NE 18:43:31 10° SE visible
22 Aug - 20:14:58 10° NW 20:19:54 33° WSW 20:25:03 10° S visible
23 Aug - 09:09:03 10° SE 09:11:01 13° ESE 09:13:03 10° ENE daylight
23 Aug - 10:47:44 10° SW 10:52:13 83° NW 10:57:07 10° NNE daylight
23 Aug - 12:31:54 10° WNW 12:35:08 18° NNW 12:38:34 10° N daylight
23 Aug - 16:02:49 10° N 16:04:11 11° NNE 16:05:35 10° NE daylight
23 Aug - 17:43:13 10° NNW 17:48:00 31° NE 17:53:03 10° ESE visible
23 Aug - 19:25:01 10° NW 19:30:26 60° WSW 19:36:10 10° SSE visible
24 Aug - 09:58:23 10° SSW 10:02:40 49° ESE 10:07:20 10° NE daylight
24 Aug - 11:41:03 10° W 11:45:00 28° NW 11:49:17 10° NNE daylight
24 Aug - 16:53:55 10° NNW 16:57:55 21° NE 17:02:06 10° E daylight
24 Aug - 18:35:18 10° NNW 18:40:49 79° NE 18:46:39 10° SE visible
24 Aug - 20:18:28 10° WNW 20:22:24 20° WSW 20:26:25 10° SSW visible
25 Aug - 09:09:43 10° SSE 09:13:20 25° ESE 09:17:11 10° NE daylight
25 Aug - 10:50:41 10° WSW 10:55:04 47° NW 10:59:51 10° NNE daylight
25 Aug - 12:36:12 10° NW 12:38:29 13° NNW 12:40:51 10° N daylight
25 Aug - 16:04:44 10° N 16:07:39 14° NNE 16:10:39 10° ENE daylight
25 Aug - 17:45:46 10° NNW 17:51:03 47° NE 17:56:37 10° ESE visible
25 Aug - 19:28:03 10° NW 19:33:04 35° WSW 19:38:18 10° S visible
26 Aug - 08:22:28 10° SE 08:24:10 12° ESE 08:25:55 10° E daylight
26 Aug - 10:00:50 10° SSW 10:05:19 88° WNW 10:10:16 10° NNE daylight
26 Aug - 11:44:51 10° W 11:48:12 19° NNW 11:51:45 10° NNE daylight
26 Aug - 15:15:58 10° N 15:17:15 11° NNE 15:18:31 10° NNE daylight
26 Aug - 16:56:21 10° NNW 17:01:06 30° NE 17:06:06 10° ESE daylight
26 Aug - 18:38:05 10° NW 18:43:35 63° WSW 18:49:20 10° SSE visible
26 Aug - 20:23:42 10° W 20:24:44 10° WSW 20:25:47 10° WSW visible
27 Aug - 09:11:31 10° S 09:15:48 47° ESE 09:20:27 10° NE daylight
27 Aug - 10:54:03 10° WSW 10:58:05 29° NW 11:02:27 10° NNE daylight
27 Aug - 12:41:26 10° NNW 12:41:58 10° NNW 12:42:28 10° N daylight
27 Aug - 16:07:03 10° NNW 16:10:59 20° NE 16:15:06 10° E daylight
27 Aug - 17:48:24 10° NNW 17:53:57 76° NE 17:59:47 10° SE visible
27 Aug - 19:31:29 10° WNW 19:35:34 21° WSW 19:39:45 10° SSW visible
